Location: Blanot
(47.1713°N, 4.2340°E)
Time: 10:48:07
(UTC+00:00)

Cosmos 1733 Rocket - Pass Details

Date: 14 July 2020
Orbit: 604 x 628 km, 82.5° (Epoch: 05 August)

Event Time Altitude Azimuth Distance (km) Brightness Sun altitude
Exits shadow 03:06:38 10° 231° (SW) 1,933 4.9 -8.1°
Maximum altitude 03:10:15 27° 289° (WNW) 1,188 4.3 -7.7°
Drops below altitude 10° 03:13:56 10° 347° (NNW) 1,963 6.1 -7.2°
Sets 03:16:27 0° 360° (N) 2,873 7.2 -6.9°
